Location: Devore Heights
(34.2372°N, 117.4156°W)
Time: 11:10:42
(UTC+00:00)

Tiros 1 despin weight - All Passes

Search period start: 07 September 2024 00:00
Search period end: 17 September 2024 00:00
Orbit: 574 x 618 km, 48.2° (Epoch: 06 September)

Date Brightness Start Highest point End Pass type
(mag) Time Alt. Az. Time Alt. Az. Time Alt. Az.
07 Sep - 12:17:51 10° SSW 12:21:48 30° SE 12:25:46 10° ENE visible
07 Sep - 13:58:22 10° WSW 14:02:44 45° NNW 14:07:07 10° NE daylight
07 Sep - 15:41:47 10° NW 15:44:41 16° NNW 15:47:35 10° NNE daylight
07 Sep - 17:24:40 10° NNW 17:27:12 15° N 17:29:43 10° NE daylight
07 Sep - 19:05:17 10° NW 19:09:20 32° NNE 19:13:22 10° E daylight
07 Sep - 20:46:14 10° WNW 20:50:30 45° SW 20:54:42 10° SSE daylight
08 Sep - 12:26:25 10° SW 12:30:51 56° SE 12:35:18 10° ENE visible
08 Sep - 14:08:07 10° W 14:12:07 29° NNW 14:16:07 10° NE daylight
08 Sep - 15:51:52 10° NW 15:54:19 14° N 15:56:47 10° NNE daylight
08 Sep - 17:33:49 10° NNW 17:36:50 17° NNE 17:39:50 10° ENE daylight
08 Sep - 19:14:18 10° NW 19:18:42 51° NNE 19:23:01 10° ESE daylight
08 Sep - 20:55:55 10° WNW 20:59:31 24° SW 21:03:03 10° S daylight
09 Sep - 10:56:54 10° SSE 10:59:24 15° SE 11:01:55 10° E visible
09 Sep - 12:35:27 10° SW 12:39:58 81° NW 12:44:33 10° NE visible
09 Sep - 14:18:04 10° WNW 14:21:35 21° NNW 14:25:05 10° NNE daylight
09 Sep - 16:01:41 10° NNW 16:03:59 14° N 16:06:17 10° NNE daylight
09 Sep - 17:42:49 10° NNW 17:46:22 22° NNE 17:49:53 10° ENE daylight
09 Sep - 19:23:23 10° NW 19:27:55 89° NE 19:32:21 10° SE daylight
09 Sep - 21:06:29 10° WSW 21:08:24 13° SW 21:10:19 10° SSW daylight
10 Sep - 11:04:29 10° S 11:08:19 27° SE 11:12:10 10° ENE visible
10 Sep - 12:44:49 10° WSW 12:49:12 48° NNW 12:53:37 10° NE visible
10 Sep - 14:28:08 10° NW 14:31:06 17° NNW 14:34:04 10° NNE daylight
10 Sep - 16:11:07 10° NNW 16:13:37 14° N 16:16:07 10° NE daylight
10 Sep - 17:51:46 10° NW 17:55:48 31° NNE 17:59:47 10° E daylight
10 Sep - 19:32:39 10° WNW 19:37:00 50° SW 19:41:16 10° SSE daylight
11 Sep - 11:12:55 10° SSW 11:17:17 51° SE 11:21:42 10° ENE visible
11 Sep - 12:54:27 10° W 12:58:30 31° NNW 13:02:34 10° NE visible
11 Sep - 14:38:10 10° NW 14:40:41 14° N 14:43:12 10° NNE daylight
11 Sep - 16:20:14 10° NNW 16:23:12 17° NNE 16:26:08 10° NE daylight
11 Sep - 18:00:43 10° NW 18:05:05 48° NNE 18:09:25 10° ESE daylight
11 Sep - 19:42:12 10° WNW 19:45:57 26° SW 19:49:40 10° S daylight
12 Sep - 09:43:40 10° SSE 09:45:49 13° SE 09:47:58 10° E visible
12 Sep - 11:21:50 10° SW 11:26:20 88° NW 11:30:54 10° NE visible
12 Sep - 13:04:19 10° WNW 13:07:53 22° NNW 13:11:28 10° NNE visible
12 Sep - 14:47:58 10° NNW 14:50:17 14° N 14:52:35 10° NNE daylight
12 Sep - 16:29:11 10° NNW 16:32:41 21° NNE 16:36:09 10° ENE daylight
12 Sep - 18:09:44 10° NW 18:14:16 83° NE 18:18:44 10° SE daylight
12 Sep - 19:52:28 10° W 19:54:48 14° SW 19:57:08 10° SSW daylight
13 Sep - 09:50:58 10° S 09:54:39 25° SE 09:58:22 10° ENE visible
13 Sep - 11:31:05 10° WSW 11:35:29 51° NNW 11:39:56 10° NE visible
13 Sep - 13:14:18 10° WNW 13:17:20 17° NNW 13:20:24 10° NNE daylight
13 Sep - 14:57:22 10° NNW 14:59:51 14° N 15:02:19 10° NE daylight
13 Sep - 16:38:03 10° NW 16:42:03 29° NNE 16:46:00 10° E daylight
13 Sep - 18:18:53 10° WNW 18:23:18 55° SW 18:27:39 10° SE daylight
14 Sep - 09:59:15 10° SSW 10:03:33 46° SE 10:07:54 10° ENE visible
14 Sep - 11:40:38 10° W 11:44:43 33° NNW 11:48:50 10° NE visible
14 Sep - 13:24:17 10° NW 13:26:51 15° N 13:29:26 10° NNE daylight
14 Sep - 15:06:28 10° NNW 15:09:22 16° NNE 15:12:16 10° NE daylight
14 Sep - 16:46:57 10° NW 16:51:19 45° NNE 16:55:37 10° ESE daylight
14 Sep - 18:28:19 10° WNW 18:32:13 29° SW 18:36:04 10° SSE daylight
15 Sep - 08:30:24 10° SSE 08:32:03 12° SE 08:33:43 10° ESE night (unlit)
15 Sep - 10:08:02 10° SW 10:12:32 86° SE 10:17:05 10° NE visible
15 Sep - 11:50:23 10° WNW 11:54:01 23° NNW 11:57:41 10° NNE visible
15 Sep - 13:34:03 10° NNW 13:36:23 14° N 13:38:43 10° NNE daylight
15 Sep - 15:15:22 10° NNW 15:18:48 21° NNE 15:22:13 10° ENE daylight
15 Sep - 16:55:53 10° NW 17:00:26 76° NE 17:04:55 10° ESE daylight
15 Sep - 18:38:20 10° W 18:41:02 16° SW 18:43:41 10° SSW daylight
16 Sep - 08:37:19 10° S 08:40:49 23° SE 08:44:21 10° E night (unlit)
16 Sep - 10:17:11 10° WSW 10:21:36 55° NNW 10:26:04 10° NE visible
16 Sep - 12:00:18 10° WNW 12:03:25 18° NNW 12:06:32 10° NNE visible
16 Sep - 13:43:28 10° NNW 13:45:53 14° N 13:48:20 10° NE daylight
16 Sep - 15:24:11 10° NW 15:28:08 28° NNE 15:32:02 10° E daylight
16 Sep - 17:04:57 10° WNW 17:09:25 60° SW 17:13:50 10° SE daylight
